Weather Roundup
Issued by NWS

Home | Current Version | Previous Version | Text Only | Print | Product List | Glossary On
Versions: 1 2 3 4 5 6 7 8 9 10 11 12 13 14 15 16 17 18 19 20 21 22 23 24 25 26 27 28 29 30 31 32 33 34 35 36 37 38 39 40 41 42 43 44 45 46 47 48 49 50
000
NZUS93 KARX 290510
HRRWXR

CURRENT HOURLY OBSERVATIONS ACROSS
MUCH OF THE UPPER MISSISSIPPI VALLEY
NATIONAL WEATHER SERVICE LA CROSSE WI
1200 AM CDT FRI MAY 29 2015


...SOUTHEAST MINNESOTA...


CITY           SKY/WX    TMP DP  RH WIND       PRES   REMARKS
ROCHESTER      CLOUDY    68  55  63 S8        29.97F
ROCHESTER/MAYO CLOUDY    70  54  56 SE6       29.96F
WINONA         CLOUDY    70  54  56 CALM      29.97S
AUSTIN         CLOUDY    66  57  72 S5        29.96F
ALBERT LEA     CLOUDY    70  59  68 S9        29.94F
DODGE CENTER   LGT RAIN  66  57  72 S8        29.96F
PRESTON        CLOUDY    65  53  64 S6        29.98F
OWATONNA       CLOUDY    70  57  64 S7        29.94F
FARIBAULT      CLOUDY    70  57  64 S5        29.95S
$$

...ELSEWHERE IN MINNESOTA...


CITY           SKY/WX    TMP DP  RH WIND       PRES   REMARKS
MINNEAPOLIS    CLOUDY    74  56  53 SW9G20    29.93F
INTNL FALLS    LGT RAIN  59  58  96 S5        29.84F
DULUTH         MOCLDY    44  42  93 E8        29.93F
RED WING       CLOUDY    72  54  53 SE3       29.94F
REDWOOD FALLS  MOCLDY    67  59  75 S10       29.90S
MANKATO        CLOUDY    70  59  68 S9        29.93S
WORTHINGTON    CLOUDY    64  57  77 S10       29.91F
FAIRMONT       CLOUDY    66  59  77 S12       29.92F
$$

...SOUTHWEST WISCONSIN...


CITY           SKY/WX    TMP DP  RH WIND       PRES   REMARKS
LA CROSSE      CLOUDY    73  54  51 S6        29.97F
PRAIRIE DU CHI CLOUDY    68  53  57 CALM      29.99S
BOSCOBEL       MOCLDY    61  58  90 CALM      30.01S
LONE ROCK      MOCLDY    65  57  75 E6        30.02S
PLATTEVILLE    MOCLDY    67  54  63 SE8       30.02S
FORT MC COY    CLOUDY    62  55  76 CALM      30.01S
VIROQUA        CLOUDY    68  53  58 SE7       30.02S
WIS DELLS      CLOUDY    68  55  61 SE8       30.03F
$$

...ELSEWHERE IN WISCONSIN...


CITY           SKY/WX    TMP DP  RH WIND       PRES   REMARKS
MILWAUKEE      CLOUDY    61  53  75 S7        30.08R
MADISON        MOCLDY    70  54  56 SE9       30.03F
GREEN BAY      CLEAR     67  54  63 S6        30.06S
EAU CLAIRE     CLOUDY    70  54  56 S7        29.97F
BLACK RVR FLS  FAIR      61  56  83 CALM      29.99S
MEDFORD        CLOUDY    63  55  74 SE3       30.03S
WAUSAU         MOCLDY    63  56  78 SE3       30.03R
WIS RAPIDS     CLOUDY    67  53  61 SE3       30.04R
MARSHFIELD     CLOUDY    66  54  65 S5        30.02F
RICE LAKE      MOCLDY    66  54  65 SE6       29.99F
$$

...NORTHEAST IOWA...


CITY           SKY/WX    TMP DP  RH WIND       PRES   REMARKS
DECORAH        CLOUDY    68  54  60 S6        29.99S
MASON CITY     CLOUDY    68  61  78 S8        29.96F
CHARLES CITY   CLOUDY    68  61  77 S10G17    29.98F
OELWEIN        CLOUDY    66  61  82 S7        30.01R
$$

...ELSEWHERE IN IOWA...


CITY           SKY/WX    TMP DP  RH WIND       PRES   REMARKS
DES MOINES     MOCLDY    65  63  93 S6        29.96F
IOWA CITY      CLOUDY    66  63  90 S5        30.01S
FORT DODGE     CLOUDY    68  61  77 S7        29.96F
$$

...NORTHERN ILLINOIS...


CITY           SKY/WX    TMP DP  RH WIND       PRES   REMARKS
CHICAGO-OHARE  MOCLDY    65  54  67 SE5       30.05F
CHICAGO-MIDWAY MOCLDY    69  57  65 SE6       30.05F
MOLINE         MOCLDY    66  60  81 CALM      30.01F
ROCKFORD       MOCLDY    68  55  63 SE7       30.06R
PEORIA         CLEAR     70  62  76 E5        30.04S
$$

NOTE: "FAIR" INDICATES FEW OR NO CLOUDS BELOW 12,000 FEET WITH NO
SIGNIFICANT WEATHER AND/OR OBSTRUCTIONS TO VISIBILITY. WIND
SPEEDS ARE IN MILES-PER-HOUR.



USA.gov is the U.S. government's official web portal to all federal, state and local government web resources and services.